Change the Weather History Date:

Thursday, April 18, 2013

  Actual Average Record
Temperature  
Mean Temperature 56 °F -  
Max Temperature 73 °F 49 °F 84 °F (2002)
Min Temperature 39 °F 35 °F 27 °F (1997)
Degree Days  
Heating Degree Days 9    
Growing Degree Days 6 (Base 50)    
Moisture  
Dew Point 50 °F    
Average Humidity 88    
Maximum Humidity 100    
Minimum Humidity 68    
Precipitation  
Precipitation 1.44 in - - ()
Sea Level Pressure  
Sea Level Pressure 29.69 in    
Wind  
Wind Speed 11 mph (SE)    
Max Wind Speed 18 mph    
Max Gust Speed 29 mph    
Averages and records for this station are not official NWS values.
T = Trace of Precipitation, MM = Missing Value Source: NWS Daily Summary

Daily Weather History Graph

Daily Weather History Graph

Search for Another Location

Airport or City:

Trip Planner

Search our weather history database for the weather conditions in past years. The results will help you decide how hot, cold, wet, or windy it might be!

Date:

Astronomy

Apr. 18, 2013 Rise Set
Actual Time 6:42 AM EDT 8:19 PM EDT
Civil Twilight 6:12 AM EDT 8:49 PM EDT
Nautical Twilight 5:35 AM EDT 9:26 PM EDT
Astronomical Twilight 4:55 AM EDT 10:06 PM EDT
Moon 12:50 PM EDT (4/18) 2:35 AM EDT (4/18)
Length of Visible Light 14h 37m
Length of Day
13h 36m
First Quarter, 51% of the Moon is Illuminated
Apr 18
First Quarter
Apr 25
Full
May 2
Last Quarter
May 9
New
May 18
First Quarter

Hourly Weather History & Observations

Time (EDT) Temp. Windchill Dew Point Humidity Pressure Visibility Wind Dir Wind Speed Gust Speed Precip Events Conditions
12:51 AM 43.0 °F 34.8 °F - N/A% 30.05 in - SE 18.4 mph - N/A   Unknown
1:51 AM 41.0 °F 33.9 °F - N/A% 30.03 in - ESE 12.7 mph - N/A   Unknown
2:51 AM 39.9 °F 33.4 °F - N/A% 29.99 in - ENE 10.4 mph - N/A   Unknown
3:51 AM 39.0 °F 32.8 °F 37.0 °F 93% 29.95 in - East 9.2 mph - 0.02 in   Unknown
4:51 AM 39.0 °F 33.4 °F 37.0 °F 93% 29.93 in - East 8.1 mph - 0.12 in   Unknown
5:51 AM 39.9 °F 32.1 °F 39.0 °F 97% 29.87 in - East 13.8 mph - 0.21 in   Unknown
6:51 AM 42.1 °F 36.1 °F 42.1 °F 100% 29.82 in - SSE 10.4 mph 17.3 mph 0.57 in   Unknown
7:51 AM 46.9 °F - 44.1 °F 90% 29.82 in - Variable 4.6 mph - 0.41 in   Unknown
8:51 AM 45.0 °F 37.9 °F 42.1 °F 90% 29.76 in - ESE 16.1 mph - N/A   Unknown
9:51 AM 43.0 °F 35.4 °F 41.0 °F 93% 29.72 in - ESE 16.1 mph - N/A   Unknown
10:51 AM 46.0 °F 42.5 °F 43.0 °F 89% 29.68 in - SSE 6.9 mph - N/A   Unknown
11:51 AM 51.1 °F - 46.9 °F 86% 29.62 in - SE 8.1 mph - N/A   Unknown
12:51 PM 52.0 °F - 48.0 °F 86% 29.56 in - ESE 8.1 mph - N/A   Unknown
1:51 PM 73.0 °F - 62.1 °F 68% 29.50 in - South 8.1 mph 18.4 mph N/A   Unknown
2:51 PM 70.0 °F - 63.0 °F 78% 29.50 in - South 10.4 mph 21.9 mph 0.03 in   Unknown
3:51 PM 54.0 °F - 51.1 °F 90% 29.53 in - WNW 6.9 mph 16.1 mph 0.03 in   Unknown
4:51 PM 54.0 °F - 51.1 °F 90% 29.57 in - West 5.8 mph - N/A   Unknown
5:51 PM 62.1 °F - 57.0 °F 84% 29.56 in - Variable 6.9 mph 17.3 mph 0.01 in   Unknown
6:51 PM 62.1 °F - 59.0 °F 90% 29.55 in - Variable 3.5 mph - 0.01 in   Unknown
7:51 PM 62.1 °F - 57.9 °F 86% 29.57 in - Calm Calm - N/A   Unknown
8:51 PM 62.1 °F - 59.0 °F 90% 29.55 in - Calm Calm - 0.01 in   Unknown
9:51 PM 62.1 °F - 57.9 °F 86% 29.55 in - SSE 6.9 mph - 0.01 in   Unknown
10:51 PM 62.1 °F - 57.0 °F 84% 29.45 in - South 13.8 mph 28.8 mph 0.01 in   Unknown
11:51 PM 62.1 °F - 55.0 °F 78% 29.51 in - West 10.4 mph 21.9 mph N/A   Unknown